Hourly Data Report for September 24, 2021

WINNIPEG THE FORKS
MANITOBA
Current Station Operator: ECCC - MSC

49°53'18.008" N
97°07'46.007" W
230.00 m
5023262
71579
XWN

Download Data

Hourly Data (September 2021)
Hourly Data Report for September 24, 2021
TIME
LST
Temp Definition
°C
Dew Point Definition
°C
Rel Hum Definition
%
Precip. Amount Definition
mm

Wind Dir Definition
10's deg

Wind Spd Definition
km/h
Visibility Definition
km
Stn Press Definition
kPa
Hmdx Definition


Wind Chill Definition


Weather Definition


00:00 15.1 0.9 38 0.0 31 4   98.55     LegendNANA
01:00 14.9 -1.1 33 0.0 33 6   98.53     LegendNANA
02:00 14.4 -1.6 33 0.0 30 4   98.54     LegendNANA
03:00 13.4 -2.2 34 0.0 29 5   98.58     LegendNANA
04:00 11.9 -1.8 39 0.0 28 5   98.62     LegendNANA
05:00 9.8 -1.8 44 0.0 29 3   98.63     LegendNANA
06:00 9.0 -1.8 47 0.0 29 3   98.63     LegendNANA
07:00 8.3 -2.9 45 0.0 27 8   98.62     LegendNANA
08:00 8.6 -2.0 47 0.0 26 7   98.60     LegendNANA
09:00 10.0 -0.6 47 0.0 26 9   98.59     LegendNANA
10:00 12.7 -0.6 40 0.0 26 7   98.53     LegendNANA
11:00 12.7 0.1 42 0.0 29 9   98.50     LegendNANA
12:00 13.5 2.0 46 0.0 30 10   98.45     LegendNANA
13:00 13.6 2.9 48 0.0 31 10   98.45     LegendNANA
14:00 13.5 3.4 50 0.0 32 7   98.42     LegendNANA
15:00 13.7 3.4 50 0.0 31 10   98.41     LegendNANA
16:00 14.6 2.8 45 0.0 33 11   98.38     LegendNANA
17:00 14.5 3.0 46 0.0 31 10   98.40     LegendNANA
18:00 13.9 4.1 52 0.0 33 9   98.39     LegendNANA
19:00 13.3 3.8 53 0.0 30 6   98.39     LegendNANA
20:00 12.6 4.1 56 0.0 31 5   98.40     LegendNANA
21:00 12.0 4.1 59 0.0 28 4   98.39     LegendNANA
22:00 11.2 3.8 60 0.0 29 5   98.37     LegendNANA
23:00 10.6 4.6 66 0.0 30 2   98.34     LegendNANA

Notes on Data Quality.

Legend

  • E = Estimated
  • M = Missing
  • NA = Not Available*
  • [empty] = Indicates an unobserved value
Date modified: